User: anonymous   Login
Location: Ballingbuur
(53.0000°N, 5.7667°E)
Time: 22:37:31
(UTC+00:00)
Language:

SKYMED 2 - Orbit

View from above orbital plane
View from above orbital plane
View from above satellite
View from above satellite

Ground track
Ground track

The orbit data is extracted from the following two-line orbital elements,

1 32376U 07059A   21058.49878394 -.00000839  00000-0 -98853-4 0  9999
2 32376  97.8851 243.9537 0001394  92.7958 267.3389 14.82152995715356
Epoch (UTC): 27 February 2021 11:58:14
Eccentricity: 0.0001394
inclination: 97.8851°
perigee height: 621 km
apogee height: 623 km
right ascension of ascending node: 243.9537°
argument of perigee: 92.7958°
revolutions per day: 14.82152995
mean anomaly at epoch: 267.3389°
orbit number at epoch: 71535

The dashed part of the orbit path shows where the satellite is in the earth's shadow,  

DLR